SCP
0 0 0 -0 0 0 -0 0 0 0 0 -0 0 0 0 0 0 0 0 -0 -0 0 0 -0 -0 -0 -0 -0 -0 -0 -0 -0 -0 -0 -0 -0 -0 -0 -0 -0 -0 -0 -0 -0 -0 -0 -0 -0 -0
0 0 0 -0 0 0 -0 0 0 0 -0 0 0 0 0 0 0 0 -0 -0 -0 -0 0 -0 -0 -0 -0 -0 -0 -0 -0 -0 -0 -0 -0 -0 -0 -0 -0 -0 -0 -0 -0 -0 -0 -0 -0 -0 -0
0 0 0 -0 -0 -0 -0 0 0 0 0 0 0 0 0 0 0 -0 0 -0 -0 -0 0 0 -0 -0 -0 -0 -0 -0 -0 -0 -0 -0 -0 -0 -0 -0 -0 -0 -0 -0 -0 -0 -0 -0 -0 -0 -0
0 0 0 0 0 -0 -0 -0 -0 -0 0 0 0 0 0 0 -0 0 -0 -0 -0 -0 -0 -0 -0 -0 -0 -0 -0 -0 -0 -0 -0 -0 -0 -0 -0 -0 -0 -0 -0 -0 -0 -0 -0 -0 -0 -0 -0
0 0 -0 -0 -0 -0 0 -0 -0 -0 0 0 0 0 0 0 0 0 -0 -0 -0 -0 -0 -0 -0 -0 -0 -0 -0 -0 -0 -0 -0 -0 -0 -0 -0 -0 -0 -0 -0 -0 -0 -0 -0 -0 -0 -0 -0
0 0 -0 0 -0 0 0 -0 -0 -0 0 0 0 0 0 0 0 -0 -0 -0 -0 -0 -0 -0 -0 -0 -0 -0 -0 -0 -0 -0 -0 -0 -0 -0 -0 -0 -0 -0 -0 -0 -0 -0 -0 -0 -0 -0 -0
0 0 0 0 0 0 0 -0 -0 -0 -0 -0 -0 0 0 -0 -0 -0 -0 -0 -0 -0 -0 -0 -0 -0 -0 -0 -0 -0 -0 -0 -0 -0 -0 -0 -0 -0 -0 -0 -0 -0 -0 -0 -0 -0 -0 -0 -0
0 0 0 0 0 0 0 -0 0 -0 -0 0 0 0 0 -0 -0 0 -0 -0 -0 -0 -0 -0 -0 -0 -0 -0 -0 -0 -0 -0 -0 -0 -0 -0 -0 -0 -0 -0 -0 -0 -0 -0 -0 -0 -0 -0 -0
0 0 0 0 0 0 0 -0 0 0 0 0 0 0 0 0 -0 -0 -0 0 0 0 -0 -0 0 0 0 0 0 0 -0 -0 -0 0 -0 -0 0 0 0 0 -0 -0 -0 -0 -0 -0 -0 -0 -0
0 0 0 0 0 0 0 0 -0 0 0 0 0 0 0 0 -0 -0 -0 -0 0 -0 0 0 0 0 0 0 0 0 0 0 0 0 0 0 0 0 0 0 0 -0 -0 -0 -0 -0 0 0 0
0 0 0 0 0 0 0 0 0 0 0 -0 -0 -0 -0 -0 0 0 0 0 0 0 0 0 0 0 0 0 0 0 0 0 0 0 0 0 0 0 0 0 0 0 0 0 0 0 0 0 0
0 0 0 0 0 0 0 0 0 -0 -0 0 0 0 -0 -0 0 0 0 0 0 0 0 0 0 0 0 0 0 0 0 0 0 0 0 0 0 0 0 0 0 0 0 0 0 0 0 0 0
0 0 0 0 0 0 0 0 0 0 -0 0 0 0 0 0 0 0 0 0 0 0 0 0 0 0 0 0 0 0 0 0 0 0 0 0 0 0 0 0 0 0 0 0 0 0 0 0 0
0 0 0 0 0 0 0 0 0 0 0 0 0 0 0 0 0 0 0 0 0 0 0 0 0 0 0 0 0 0 0 0 0 0 0 0 0 0 0 0 0 0 0 0 0 0 0 0 0
0 0 0 0 0 0 0 0 0 0 0 0 0 0 0 0 0 0 0 0 0 0 0 0 0 0 0 0 0 0 0 0 0 0 0 0 0 0 0 0 0 0 0 0 0 0 0 0 0
0 0 0 0 0 0 0 0 0 0 0 0 0 0 0 0 0 0 0 0 0 0 0 0 0 0 0 0 0 0 0 0 0 0 0 0 0 0 0 0 0 0 0 0 0 0 0 0 0
0 0 0 0 0 0 0 0 0 0 0 0 0 0 0 0 0 0 0 0 0 0 0 0 0 0 0 0 0 0 0 0 0 0 0 0 0 0 0 0 0 0 0 0 0 0 0 0 0
0 0 0 0 0 0 0 0 0 0 0 0 0 0 0 0 0 0 0 0 0 0 0 0 0 0 0 0 0 0 0 0 0 0 0 0 0 0 0 0 0 0 0 0 0 0 0 0 0
0 0 0 0 0 0 0 0 0 0 0 0 0 0 0 0 0 0 0 0 0 0 0 0 0 0 0 0 0 0 0 0 0 0 0 0 0 0 0 0 0 0 0 0 0 0 0 0 0
0 0 0 0 0 0 0 0 0 0 0 0 0 0 0 0 0 0 0 0 0 0 0 0 0 0 0 0 0 0 0 0 0 0 0 0 0 0 0 0 0 0 0 0 0 0 0 0 0
0 0 0 0 0 0 0 -0 0 0 0 0 0 0 0 0 0 0 0 0 0 0 0 0 0 0 0 0 0 0 0 0 0 0 0 0 0 0 0 0 0 0 0 0 0 0 0 0 0
0 0 0 0 0 0 0 -0 0 0 0 0 0 0 0 0 0 0 0 0 0 0 0 0 0 0 0 0 0 0 0 0 0 0 0 0 0 0 0 0 0 0 0 0 0 0 0 0 0
0 0 0 0 0 0 0 0 0 0 0 -0 0 0 0 0 0 0 0 0 0 0 0 0 0 0 0 0 0 0 0 0 0 0 0 0 0 0 0 0 0 0 0 0 0 0 0 0 0
0 0 0 0 0 0 0 0 -0 0 0 -0 -0 0 0 0 0 0 0 0 0 0 0 0 0 0 0 0 0 0 0 0 0 0 0 0 0 0 0 0 0 0 0 0 0 0 0 0 0
0 0 0 0 0 0 0 0 0 0 0 0 0 0 0 0 0 0 0 0 0 0 0 0 0 0 0 0 0 0 0 0 0 0 0 0 0 0 0 0 0 0 0 0 0 0 0 0 0
0 0 0 0 0 0 0 0 0 0 0 0 0 0 0 -0 -0 0 0 0 0 0 0 0 0 0 0 0 0 0 0 0 0 0 0 0 0 0 0 0 0 0 0 0 0 0 0 0 0
0 0 0 0 0 0 0 0 0 0 0 0 0 -0 0 0 0 0 0 0 0 0 0 0 0 0 0 0 0 0 0 0 0 0 0 0 0 0 0 0 0 0 0 0 0 0 0 0 0
0 0 0 0 0 0 0 0 0 0 0 0 0 0 0 0 0 0 0 0 0 0 0 0 0 0 0 0 0 0 0 0 0 0 0 0 0 0 0 0 0 0 0 0 0 0 0 0 0
0 0 0 0 0 0 0 0 0 0 0 0 0 0 0 0 0 0 0 0 0 0 0 0 0 0 0 0 0 0 0 0 0 0 0 0 0 0 0 0 0 0 0 0 0 0 0 0 0
0 0 0 0 0 0 0 -0 0 0 0 0 0 0 0 0 0 0 0 0 0 0 0 0 0 0 0 0 0 0 0 0 0 0 0 0 0 0 0 0 0 0 0 0 0 0 0 0 0
Wind_Speed_500mb
8 7 7 2 6 4 1 5 2 10 9 4 11 9 7 4 3 4 27 41 34 33 31 31 28 25 24 21 19 18 19 20 23 25 26 26 26 24 23 21 22 27 29 28 34 30 25 32 38
11 12 8 2 6 5 3 8 14 11 1 14 10 6 7 3 4 13 34 37 36 34 32 31 31 27 24 21 18 18 19 17 19 23 25 26 25 23 22 22 21 25 26 38 32 28 25 31 36
13 15 4 1 4 3 2 9 9 11 17 7 6 5 3 5 11 29 28 38 40 36 34 31 31 29 25 22 19 18 17 15 17 20 22 23 23 23 22 22 22 23 33 35 35 29 23 27 32
11 4 6 8 5 1 1 12 14 25 9 9 6 6 4 14 21 25 38 39 39 37 35 32 30 28 25 23 20 17 14 14 15 16 18 18 19 20 21 22 22 24 30 30 29 23 21 22 24
9 3 6 5 4 2 6 7 21 26 7 9 10 4 4 20 27 33 38 37 38 38 37 33 30 28 27 24 22 19 16 13 12 13 14 16 17 18 18 19 21 24 27 24 26 23 22 20 20
5 3 8 16 7 5 6 12 21 25 8 8 8 7 8 23 27 32 37 38 37 39 38 34 31 28 27 24 22 20 17 14 12 9 10 13 16 17 19 20 22 23 25 25 25 22 19 18 18
6 7 11 4 5 6 9 20 21 27 13 13 5 8 6 26 33 34 34 35 37 37 37 35 32 29 26 24 23 22 20 17 14 9 8 10 14 16 18 18 20 20 21 21 21 19 17 18 19
6 2 7 8 11 8 16 23 10 24 19 13 15 9 7 26 38 40 36 37 38 39 38 36 34 32 29 26 24 23 22 20 16 13 10 13 16 18 20 20 20 20 19 19 20 20 20 20 21
9 8 14 10 13 6 18 19 12 17 10 19 19 15 12 29 40 45 46 45 47 44 43 40 37 34 29 26 24 23 21 21 19 16 9 18 18 21 24 26 26 25 22 20 21 21 22 22 24
7 9 13 4 10 6 16 19 18 12 21 17 23 33 21 28 43 49 51 49 53 52 50 44 39 33 31 29 25 26 27 25 22 21 14 12 14 18 17 22 21 23 23 22 21 23 23 21 22
6 7 5 8 8 6 11 16 16 20 18 30 34 30 38 33 45 47 48 47 51 51 55 49 43 39 35 34 31 31 32 31 29 25 22 18 15 18 15 12 11 18 21 20 17 18 17 16 17
7 5 8 5 10 8 8 9 13 32 32 21 30 27 33 43 47 52 52 51 51 58 55 54 55 53 45 44 41 37 38 34 33 32 30 27 23 18 21 19 14 15 17 19 14 8 8 10 11
5 6 8 6 9 10 8 15 16 33 38 39 29 28 35 42 49 53 50 49 57 60 61 61 60 56 47 44 46 43 40 39 35 35 35 31 26 26 23 22 22 24 21 20 23 9 2 5 10
4 4 5 8 10 9 10 11 7 19 34 44 44 45 43 46 48 52 61 63 65 65 64 65 66 63 55 47 49 50 48 44 44 42 37 38 36 32 29 27 24 26 26 23 19 20 8 7 9
2 6 9 19 10 9 12 20 31 40 31 28 37 46 50 51 52 58 58 66 67 68 68 69 69 67 62 55 53 55 56 52 49 47 43 42 47 37 33 32 32 32 30 26 22 21 18 9 14
1 4 7 6 10 5 13 27 10 17 27 41 40 42 51 55 58 58 61 65 69 70 72 70 70 68 66 63 59 61 59 60 56 53 49 47 43 43 48 39 36 35 37 36 26 26 27 19 18
2 11 12 9 15 6 19 21 7 11 18 31 32 37 44 55 61 63 66 66 70 72 72 73 71 71 70 67 66 62 63 64 63 59 58 56 49 52 57 43 40 39 40 38 32 32 28 26 28
12 11 9 15 5 9 18 39 31 25 23 39 41 43 45 52 60 57 61 65 71 75 76 76 75 74 72 70 68 66 67 71 74 71 67 63 61 63 51 48 49 47 47 45 41 39 37 29 34
2 8 19 12 5 9 30 39 44 47 41 52 60 64 64 66 65 60 60 63 70 77 82 83 82 80 78 75 72 72 74 75 77 79 78 66 65 61 53 56 61 46 47 59 50 51 45 43 41
15 24 28 24 11 12 30 41 43 48 53 60 61 65 72 66 51 56 68 70 73 79 84 86 85 82 78 75 71 69 69 71 74 74 76 73 69 59 63 57 61 55 58 56 53 51 55 49 49
24 31 25 19 9 14 19 32 30 29 44 65 74 80 78 62 57 48 59 64 75 84 89 89 86 84 79 73 71 68 65 66 68 71 75 71 69 68 71 60 69 58 60 57 57 55 58 50 56
30 25 20 14 7 18 1 20 23 21 30 27 50 62 50 45 49 49 53 51 61 77 83 87 87 85 80 75 72 70 69 70 70 73 78 71 67 71 66 73 66 61 54 54 56 65 64 53 52
7 9 14 7 14 13 23 15 11 6 20 38 54 49 36 33 29 28 31 36 43 57 74 83 86 85 81 78 74 71 69 67 67 68 68 70 71 78 71 53 61 56 57 60 62 65 64 54 54
27 12 8 4 4 19 26 20 19 17 28 33 38 27 19 14 9 23 27 27 38 47 57 70 82 84 83 77 75 72 70 71 66 64 63 65 61 68 62 65 63 65 61 58 58 65 63 58 54
9 15 7 9 10 21 6 18 36 20 18 25 20 12 9 23 32 26 29 29 33 39 49 60 73 82 82 77 75 73 71 67 63 62 65 70 77 74 66 70 74 66 56 52 52 62 63 60 58
24 20 14 13 12 18 7 18 11 25 36 40 35 36 40 43 35 29 31 32 34 39 45 51 64 74 78 76 74 71 69 66 64 64 63 70 70 69 71 74 73 65 63 55 57 66 69 68 60
15 22 18 10 4 9 20 38 23 20 27 20 29 26 26 27 20 26 26 29 29 33 37 41 50 64 70 71 70 68 65 64 64 63 58 60 67 66 69 71 76 72 69 63 67 69 69 65 60
20 21 10 11 11 18 21 20 25 10 25 20 19 17 10 10 9 13 13 16 20 26 30 34 40 54 62 67 67 66 63 59 62 60 63 66 67 70 72 82 78 75 70 66 67 70 68 66 61
15 19 11 6 12 11 23 26 11 27 19 22 18 14 10 7 9 11 9 10 13 19 26 31 36 47 57 62 61 61 59 56 59 58 61 62 65 70 79 84 79 76 73 70 72 70 68 65 59
35 34 40 19 12 12 11 41 15 11 25 33 22 21 14 12 11 7 3 2 5 11 19 25 32 41 49 54 56 57 56 55 60 64 66 68 68 72 77 78 75 78 75 75 75 73 68 63 59
Wind_Direction_500mb
201 188 163 105 230 275 156 147 284 181 192 177 147 205 225 20 263 16 157 165 165 167 165 161 165 162 159 154 141 128 118 99 88 84 81 79 78 81 84 85 89 97 96 100 101 95 81 81 78
178 160 146 115 249 264 108 139 207 181 185 141 140 162 194 143 137 143 152 166 166 169 167 164 168 164 164 160 149 136 114 100 93 85 81 78 78 79 83 86 88 93 99 97 91 93 88 82 75
166 164 195 144 247 277 4 183 163 138 138 175 173 212 201 168 152 154 165 166 166 172 172 169 168 168 168 165 160 153 129 115 100 87 77 73 72 74 77 81 85 90 98 104 111 116 97 76 73
160 152 68 247 238 164 293 157 161 154 212 218 228 204 201 175 158 165 166 167 169 173 175 172 172 174 172 170 168 168 146 130 118 99 86 76 69 70 79 86 91 94 107 110 113 114 95 85 77
176 204 197 231 228 223 218 182 180 180 177 193 193 166 181 173 167 172 175 172 174 175 178 178 180 181 178 177 176 177 163 148 132 106 89 78 74 77 81 86 91 97 107 112 108 112 106 96 77
196 221 211 231 216 194 217 181 180 193 189 179 219 191 181 191 179 179 180 179 176 178 180 183 184 187 185 183 184 184 176 168 155 129 95 79 79 82 86 91 96 100 106 111 112 114 109 93 76
229 212 231 213 236 210 188 164 198 197 208 214 233 231 185 188 185 179 175 173 176 181 184 185 188 190 192 192 193 190 187 179 169 158 123 94 85 84 87 91 96 100 104 108 110 107 98 87 79
160 178 182 212 220 231 166 169 197 206 219 223 200 235 197 191 187 182 178 178 181 185 187 188 189 191 192 196 199 197 191 185 181 169 146 122 106 97 90 90 91 94 97 101 102 102 99 95 88
155 212 231 221 186 191 159 186 188 209 215 205 208 219 216 188 188 186 186 186 188 188 190 191 193 193 195 195 200 203 199 193 186 186 153 124 112 107 97 93 88 86 89 94 99 99 93 89 88
195 225 226 203 192 192 176 201 182 194 204 225 230 227 217 195 193 194 193 193 195 196 194 195 197 204 202 204 210 210 208 204 206 201 182 157 138 132 110 104 94 89 85 89 95 99 100 98 94
174 235 178 217 202 191 180 201 188 218 223 223 224 222 220 208 204 202 204 202 201 199 201 198 194 202 207 208 219 214 211 211 205 216 207 190 187 182 155 141 132 119 104 94 101 105 103 95 94
203 197 189 178 199 167 201 169 206 222 230 226 234 231 228 224 218 215 210 205 202 206 207 203 200 199 204 216 218 222 223 222 219 216 211 202 197 209 200 173 172 146 130 115 97 95 93 88 89
222 183 208 214 219 225 209 223 234 246 239 244 239 238 237 232 230 225 217 212 212 212 212 209 211 214 212 211 213 220 223 229 224 226 221 210 212 213 214 196 185 179 168 159 140 116 343 137 104
131 207 254 247 231 234 235 246 210 252 236 239 243 244 241 240 237 225 223 220 218 217 218 216 218 223 224 220 214 220 223 226 227 234 230 222 216 218 221 216 208 202 186 186 173 140 127 156 119
83 270 273 230 216 227 208 241 232 246 238 238 241 245 244 242 235 233 234 227 224 223 220 220 220 224 228 227 225 222 218 222 231 234 234 236 224 216 224 220 224 218 206 196 187 159 149 191 157
249 247 254 146 181 198 201 260 254 222 235 248 248 246 246 245 243 238 233 229 227 226 225 223 224 226 230 232 231 228 224 221 222 230 235 233 236 224 222 217 227 237 209 196 196 179 163 164 163
207 258 230 298 201 149 216 270 246 236 239 258 257 249 247 248 244 239 235 233 229 228 227 227 227 230 233 234 235 235 227 224 221 223 230 234 235 238 236 221 231 240 214 206 199 184 176 174 167
210 225 224 247 157 213 230 258 265 255 258 265 264 257 252 251 247 243 238 236 231 230 230 230 231 232 234 235 236 233 231 227 226 222 224 230 230 236 224 227 229 226 241 218 198 195 176 188 180
154 232 262 251 211 226 245 262 267 271 264 262 262 259 256 252 254 248 243 237 235 232 231 231 231 232 233 235 235 234 232 229 226 223 222 223 228 228 232 230 231 227 233 208 198 192 185 182 189
233 257 260 276 261 225 271 264 270 264 258 254 255 257 255 254 252 249 247 245 240 237 234 232 233 234 235 236 237 235 234 230 227 221 222 219 222 228 231 231 239 231 233 207 206 200 188 187 187
230 235 243 255 314 230 284 273 244 259 258 257 254 255 258 258 260 254 258 250 242 236 234 233 233 233 234 233 232 231 228 227 221 217 219 217 221 227 236 235 222 228 215 215 205 207 203 205 197
241 217 234 250 275 273 297 286 269 265 264 252 258 254 256 257 260 267 262 255 244 240 236 232 231 231 232 231 232 231 230 226 221 218 220 224 219 224 233 224 236 216 226 212 217 214 205 213 218
249 128 181 188 237 303 234 267 229 209 245 253 255 267 264 256 263 265 265 254 243 239 235 231 228 228 228 229 229 229 228 226 228 225 220 223 226 230 229 221 224 216 219 215 215 214 214 213 218
140 102 85 99 224 261 246 222 269 218 225 250 265 274 255 239 260 287 279 257 238 231 231 230 228 227 227 226 228 228 226 229 229 223 219 216 222 210 211 212 219 218 213 217 220 216 213 213 216
187 164 217 231 205 254 79 217 254 279 237 235 259 268 245 278 286 270 267 255 238 232 231 229 226 226 227 226 228 228 230 229 227 225 227 227 218 218 228 219 216 211 211 208 217 214 213 214 214
191 201 209 234 232 280 123 236 251 243 256 251 263 278 282 286 279 263 258 253 247 239 236 230 226 224 226 226 228 229 229 227 225 222 225 226 230 231 216 220 216 208 208 205 214 214 214 213 216
178 213 244 268 78 283 254 260 257 230 245 244 252 275 277 289 276 260 253 241 244 244 242 235 229 223 226 227 228 229 229 226 223 223 224 224 221 228 225 218 212 208 206 207 211 214 213 213 211
211 148 171 213 229 244 247 259 244 220 234 239 228 224 235 248 250 239 217 223 234 236 236 233 231 228 228 227 229 231 229 227 224 223 225 228 228 221 225 216 208 208 207 211 213 210 209 210 206
172 207 216 228 226 247 274 260 183 228 193 187 190 203 190 195 188 196 197 217 232 235 237 238 231 225 224 226 230 233 228 227 224 224 224 221 226 229 228 217 210 207 210 209 208 209 207 204 203
234 218 194 209 193 238 286 268 160 186 183 173 192 213 188 181 169 134 130 278 276 259 249 246 234 225 222 224 229 232 231 228 222 224 224 224 228 230 227 220 210 208 209 210 208 207 206 205 203
Wind_Speed_850mb
8 7 7 2 6 4 1 5 2 10 9 4 11 9 7 4 3 4 27 41 34 33 31 31 28 25 24 21 19 18 19 20 23 25 26 26 26 24 23 21 22 27 29 28 34 30 25 32 38
11 12 8 2 6 5 3 8 14 11 1 14 10 6 7 3 4 13 34 37 36 34 32 31 31 27 24 21 18 18 19 17 19 23 25 26 25 23 22 22 21 25 26 38 32 28 25 31 36
13 15 4 1 4 3 2 9 9 11 17 7 6 5 3 5 11 29 28 38 40 36 34 31 31 29 25 22 19 18 17 15 17 20 22 23 23 23 22 22 22 23 33 35 35 29 23 27 32
11 4 6 8 5 1 1 12 14 25 9 9 6 6 4 14 21 25 38 39 39 37 35 32 30 28 25 23 20 17 14 14 15 16 18 18 19 20 21 22 22 24 30 30 29 23 21 22 24
9 3 6 5 4 2 6 7 21 26 7 9 10 4 4 20 27 33 38 37 38 38 37 33 30 28 27 24 22 19 16 13 12 13 14 16 17 18 18 19 21 24 27 24 26 23 22 20 20
5 3 8 16 7 5 6 12 21 25 8 8 8 7 8 23 27 32 37 38 37 39 38 34 31 28 27 24 22 20 17 14 12 9 10 13 16 17 19 20 22 23 25 25 25 22 19 18 18
6 7 11 4 5 6 9 20 21 27 13 13 5 8 6 26 33 34 34 35 37 37 37 35 32 29 26 24 23 22 20 17 14 9 8 10 14 16 18 18 20 20 21 21 21 19 17 18 19
6 2 7 8 11 8 16 23 10 24 19 13 15 9 7 26 38 40 36 37 38 39 38 36 34 32 29 26 24 23 22 20 16 13 10 13 16 18 20 20 20 20 19 19 20 20 20 20 21
9 8 14 10 13 6 18 19 12 17 10 19 19 15 12 29 40 45 46 45 47 44 43 40 37 34 29 26 24 23 21 21 19 16 9 18 18 21 24 26 26 25 22 20 21 21 22 22 24
7 9 13 4 10 6 16 19 18 12 21 17 23 33 21 28 43 49 51 49 53 52 50 44 39 33 31 29 25 26 27 25 22 21 14 12 14 18 17 22 21 23 23 22 21 23 23 21 22
6 7 5 8 8 6 11 16 16 20 18 30 34 30 38 33 45 47 48 47 51 51 55 49 43 39 35 34 31 31 32 31 29 25 22 18 15 18 15 12 11 18 21 20 17 18 17 16 17
7 5 8 5 10 8 8 9 13 32 32 21 30 27 33 43 47 52 52 51 51 58 55 54 55 53 45 44 41 37 38 34 33 32 30 27 23 18 21 19 14 15 17 19 14 8 8 10 11
5 6 8 6 9 10 8 15 16 33 38 39 29 28 35 42 49 53 50 49 57 60 61 61 60 56 47 44 46 43 40 39 35 35 35 31 26 26 23 22 22 24 21 20 23 9 2 5 10
4 4 5 8 10 9 10 11 7 19 34 44 44 45 43 46 48 52 61 63 65 65 64 65 66 63 55 47 49 50 48 44 44 42 37 38 36 32 29 27 24 26 26 23 19 20 8 7 9
2 6 9 19 10 9 12 20 31 40 31 28 37 46 50 51 52 58 58 66 67 68 68 69 69 67 62 55 53 55 56 52 49 47 43 42 47 37 33 32 32 32 30 26 22 21 18 9 14
1 4 7 6 10 5 13 27 10 17 27 41 40 42 51 55 58 58 61 65 69 70 72 70 70 68 66 63 59 61 59 60 56 53 49 47 43 43 48 39 36 35 37 36 26 26 27 19 18
2 11 12 9 15 6 19 21 7 11 18 31 32 37 44 55 61 63 66 66 70 72 72 73 71 71 70 67 66 62 63 64 63 59 58 56 49 52 57 43 40 39 40 38 32 32 28 26 28
12 11 9 15 5 9 18 39 31 25 23 39 41 43 45 52 60 57 61 65 71 75 76 76 75 74 72 70 68 66 67 71 74 71 67 63 61 63 51 48 49 47 47 45 41 39 37 29 34
2 8 19 12 5 9 30 39 44 47 41 52 60 64 64 66 65 60 60 63 70 77 82 83 82 80 78 75 72 72 74 75 77 79 78 66 65 61 53 56 61 46 47 59 50 51 45 43 41
15 24 28 24 11 12 30 41 43 48 53 60 61 65 72 66 51 56 68 70 73 79 84 86 85 82 78 75 71 69 69 71 74 74 76 73 69 59 63 57 61 55 58 56 53 51 55 49 49
24 31 25 19 9 14 19 32 30 29 44 65 74 80 78 62 57 48 59 64 75 84 89 89 86 84 79 73 71 68 65 66 68 71 75 71 69 68 71 60 69 58 60 57 57 55 58 50 56
30 25 20 14 7 18 1 20 23 21 30 27 50 62 50 45 49 49 53 51 61 77 83 87 87 85 80 75 72 70 69 70 70 73 78 71 67 71 66 73 66 61 54 54 56 65 64 53 52
7 9 14 7 14 13 23 15 11 6 20 38 54 49 36 33 29 28 31 36 43 57 74 83 86 85 81 78 74 71 69 67 67 68 68 70 71 78 71 53 61 56 57 60 62 65 64 54 54
27 12 8 4 4 19 26 20 19 17 28 33 38 27 19 14 9 23 27 27 38 47 57 70 82 84 83 77 75 72 70 71 66 64 63 65 61 68 62 65 63 65 61 58 58 65 63 58 54
9 15 7 9 10 21 6 18 36 20 18 25 20 12 9 23 32 26 29 29 33 39 49 60 73 82 82 77 75 73 71 67 63 62 65 70 77 74 66 70 74 66 56 52 52 62 63 60 58
24 20 14 13 12 18 7 18 11 25 36 40 35 36 40 43 35 29 31 32 34 39 45 51 64 74 78 76 74 71 69 66 64 64 63 70 70 69 71 74 73 65 63 55 57 66 69 68 60
15 22 18 10 4 9 20 38 23 20 27 20 29 26 26 27 20 26 26 29 29 33 37 41 50 64 70 71 70 68 65 64 64 63 58 60 67 66 69 71 76 72 69 63 67 69 69 65 60
20 21 10 11 11 18 21 20 25 10 25 20 19 17 10 10 9 13 13 16 20 26 30 34 40 54 62 67 67 66 63 59 62 60 63 66 67 70 72 82 78 75 70 66 67 70 68 66 61
15 19 11 6 12 11 23 26 11 27 19 22 18 14 10 7 9 11 9 10 13 19 26 31 36 47 57 62 61 61 59 56 59 58 61 62 65 70 79 84 79 76 73 70 72 70 68 65 59
35 34 40 19 12 12 11 41 15 11 25 33 22 21 14 12 11 7 3 2 5 11 19 25 32 41 49 54 56 57 56 55 60 64 66 68 68 72 77 78 75 78 75 75 75 73 68 63 59
Wind_Direction_850mb
201 188 163 105 230 275 156 147 284 181 192 177 147 205 225 20 263 16 157 165 165 167 165 161 165 162 159 154 141 128 118 99 88 84 81 79 78 81 84 85 89 97 96 100 101 95 81 81 78
178 160 146 115 249 264 108 139 207 181 185 141 140 162 194 143 137 143 152 166 166 169 167 164 168 164 164 160 149 136 114 100 93 85 81 78 78 79 83 86 88 93 99 97 91 93 88 82 75
166 164 195 144 247 277 4 183 163 138 138 175 173 212 201 168 152 154 165 166 166 172 172 169 168 168 168 165 160 153 129 115 100 87 77 73 72 74 77 81 85 90 98 104 111 116 97 76 73
160 152 68 247 238 164 293 157 161 154 212 218 228 204 201 175 158 165 166 167 169 173 175 172 172 174 172 170 168 168 146 130 118 99 86 76 69 70 79 86 91 94 107 110 113 114 95 85 77
176 204 197 231 228 223 218 182 180 180 177 193 193 166 181 173 167 172 175 172 174 175 178 178 180 181 178 177 176 177 163 148 132 106 89 78 74 77 81 86 91 97 107 112 108 112 106 96 77
196 221 211 231 216 194 217 181 180 193 189 179 219 191 181 191 179 179 180 179 176 178 180 183 184 187 185 183 184 184 176 168 155 129 95 79 79 82 86 91 96 100 106 111 112 114 109 93 76
229 212 231 213 236 210 188 164 198 197 208 214 233 231 185 188 185 179 175 173 176 181 184 185 188 190 192 192 193 190 187 179 169 158 123 94 85 84 87 91 96 100 104 108 110 107 98 87 79
160 178 182 212 220 231 166 169 197 206 219 223 200 235 197 191 187 182 178 178 181 185 187 188 189 191 192 196 199 197 191 185 181 169 146 122 106 97 90 90 91 94 97 101 102 102 99 95 88
155 212 231 221 186 191 159 186 188 209 215 205 208 219 216 188 188 186 186 186 188 188 190 191 193 193 195 195 200 203 199 193 186 186 153 124 112 107 97 93 88 86 89 94 99 99 93 89 88
195 225 226 203 192 192 176 201 182 194 204 225 230 227 217 195 193 194 193 193 195 196 194 195 197 204 202 204 210 210 208 204 206 201 182 157 138 132 110 104 94 89 85 89 95 99 100 98 94
174 235 178 217 202 191 180 201 188 218 223 223 224 222 220 208 204 202 204 202 201 199 201 198 194 202 207 208 219 214 211 211 205 216 207 190 187 182 155 141 132 119 104 94 101 105 103 95 94
203 197 189 178 199 167 201 169 206 222 230 226 234 231 228 224 218 215 210 205 202 206 207 203 200 199 204 216 218 222 223 222 219 216 211 202 197 209 200 173 172 146 130 115 97 95 93 88 89
222 183 208 214 219 225 209 223 234 246 239 244 239 238 237 232 230 225 217 212 212 212 212 209 211 214 212 211 213 220 223 229 224 226 221 210 212 213 214 196 185 179 168 159 140 116 343 137 104
131 207 254 247 231 234 235 246 210 252 236 239 243 244 241 240 237 225 223 220 218 217 218 216 218 223 224 220 214 220 223 226 227 234 230 222 216 218 221 216 208 202 186 186 173 140 127 156 119
83 270 273 230 216 227 208 241 232 246 238 238 241 245 244 242 235 233 234 227 224 223 220 220 220 224 228 227 225 222 218 222 231 234 234 236 224 216 224 220 224 218 206 196 187 159 149 191 157
249 247 254 146 181 198 201 260 254 222 235 248 248 246 246 245 243 238 233 229 227 226 225 223 224 226 230 232 231 228 224 221 222 230 235 233 236 224 222 217 227 237 209 196 196 179 163 164 163
207 258 230 298 201 149 216 270 246 236 239 258 257 249 247 248 244 239 235 233 229 228 227 227 227 230 233 234 235 235 227 224 221 223 230 234 235 238 236 221 231 240 214 206 199 184 176 174 167
210 225 224 247 157 213 230 258 265 255 258 265 264 257 252 251 247 243 238 236 231 230 230 230 231 232 234 235 236 233 231 227 226 222 224 230 230 236 224 227 229 226 241 218 198 195 176 188 180
154 232 262 251 211 226 245 262 267 271 264 262 262 259 256 252 254 248 243 237 235 232 231 231 231 232 233 235 235 234 232 229 226 223 222 223 228 228 232 230 231 227 233 208 198 192 185 182 189
233 257 260 276 261 225 271 264 270 264 258 254 255 257 255 254 252 249 247 245 240 237 234 232 233 234 235 236 237 235 234 230 227 221 222 219 222 228 231 231 239 231 233 207 206 200 188 187 187
230 235 243 255 314 230 284 273 244 259 258 257 254 255 258 258 260 254 258 250 242 236 234 233 233 233 234 233 232 231 228 227 221 217 219 217 221 227 236 235 222 228 215 215 205 207 203 205 197
241 217 234 250 275 273 297 286 269 265 264 252 258 254 256 257 260 267 262 255 244 240 236 232 231 231 232 231 232 231 230 226 221 218 220 224 219 224 233 224 236 216 226 212 217 214 205 213 218
249 128 181 188 237 303 234 267 229 209 245 253 255 267 264 256 263 265 265 254 243 239 235 231 228 228 228 229 229 229 228 226 228 225 220 223 226 230 229 221 224 216 219 215 215 214 214 213 218
140 102 85 99 224 261 246 222 269 218 225 250 265 274 255 239 260 287 279 257 238 231 231 230 228 227 227 226 228 228 226 229 229 223 219 216 222 210 211 212 219 218 213 217 220 216 213 213 216
187 164 217 231 205 254 79 217 254 279 237 235 259 268 245 278 286 270 267 255 238 232 231 229 226 226 227 226 228 228 230 229 227 225 227 227 218 218 228 219 216 211 211 208 217 214 213 214 214
191 201 209 234 232 280 123 236 251 243 256 251 263 278 282 286 279 263 258 253 247 239 236 230 226 224 226 226 228 229 229 227 225 222 225 226 230 231 216 220 216 208 208 205 214 214 214 213 216
178 213 244 268 78 283 254 260 257 230 245 244 252 275 277 289 276 260 253 241 244 244 242 235 229 223 226 227 228 229 229 226 223 223 224 224 221 228 225 218 212 208 206 207 211 214 213 213 211
211 148 171 213 229 244 247 259 244 220 234 239 228 224 235 248 250 239 217 223 234 236 236 233 231 228 228 227 229 231 229 227 224 223 225 228 228 221 225 216 208 208 207 211 213 210 209 210 206
172 207 216 228 226 247 274 260 183 228 193 187 190 203 190 195 188 196 197 217 232 235 237 238 231 225 224 226 230 233 228 227 224 224 224 221 226 229 228 217 210 207 210 209 208 209 207 204 203
234 218 194 209 193 238 286 268 160 186 183 173 192 213 188 181 169 134 130 278 276 259 249 246 234 225 222 224 229 232 231 228 222 224 224 224 228 230 227 220 210 208 209 210 208 207 206 205 203